Location: Newark
(39.0083°N, 20.7336°E)
Time: 13:45:05
(UTC+00:00)

ISS - Pass Details

Date: 03 October 2021
Orbit: 417 x 423 km, 51.6° (Epoch: 24 October)

Event Time Altitude Azimuth Distance (km) Brightness Sun altitude
Rises 18:21:18 0° 306° (NW) 2,364 1.2 -24.9°
Reaches altitude 10° 18:23:24 10° 303° (WNW) 1,498 0.0 -25.3°
Enters shadow 18:25:19 31° 292° (WNW) 769 -1.9 -25.6°
